1489680000.33,52799,9.75,72920.8,-10.27,-13.47,-14.47,0,*63
1489680001.59,52800,9.75,72914.5,-10.27,-13.61,-14.75,0,*69
1489680002.85,52801,9.75,72900.3,-10.27,-13.87,-15.21,0,*60
1489680004.09,52802,9.75,72910.5,-10.27,-14.83,-16.89,0,*61
1489680005.33,52803,9.75,72882.0,-10.27,-15.67,-16.69,0,*65
1489680006.57,52804,9.75,72904.8,-10.29,-14.89,-16.75,0,*60
1489680007.81,52805,9.75,72900.8,-10.29,-15.75,-16.93,0,*6B
1489680009.08,52806,9.75,72912.3,-10.27,-15.39,-18.35,0,*6C
1489680010.38,52807,9.75,72928.3,-10.29,-17.97,-20.53,0,*6E
1489680011.61,52808,9.75,72930.8,-10.27,-18.35,-18.83,0,*6E
1489680012.83,52809,9.75,72912.3,-10.27,-16.37,-16.75,0,*64
1489680014.1,52810,9.75,72892.8,-10.29,-15.57,-16.79,0,*6B
1489680015.37,52811,9.75,72906.8,-10.29,-16.41,-18.35,0,*68
1489680016.6,52812,9.75,72884.0,-10.31,-17.93,-19.03,0,*68
1489680017.84,52813,9.75,72858.8,-10.31,-17.49,-16.69,0,*6D
1489680019.07,52814,9.75,72868.3,-10.31,-15.11,-13.83,0,*64
1489680020.3,52815,9.75,72840.0,-10.31,-13.15,-12.53,0,*6B
1489680021.57,52816,9.75,72816.0,-10.29,-12.39,-12.15,0,*6C
1489680022.81,52817,9.75,72826.0,-10.31,-11.97,-12.39,0,*6D
1489680024.05,52818,9.75,72896.3,-10.33,-12.47,-13.15,0,*61
1489680025.27,52819,9.75,72874.8,-10.31,-13.65,-14.43,0,*67
1489680026.54,52820,9.75,72920.5,-10.29,-14.29,-14.79,0,*62
1489680027.84,52821,9.75,72898.8,-10.29,-15.39,-16.69,0,*60
1489680029.05,52822,9.75,72930.5,-10.31,-16.03,-18.11,0,*61
1489680030.32,52823,9.75,72906.8,-10.33,-16.45,-17.63,0,*6A
1489680031.56,52824,9.75,72906.8,-10.31,-17.17,-19.75,0,*60
1489680032.8,52825,9.75,72896.8,-10.33,-18.79,-20.73,0,*68
1489680034.07,52826,9.75,72910.0,-10.33,-17.35,-18.93,0,*69
1489680035.36,52827,9.75,72878.0,-10.33,-16.31,-17.55,0,*68
1489680036.6,52828,9.75,72884.3,-10.33,-15.49,-16.59,0,*66
1489680037.85,52829,9.75,72906.3,-10.33,-15.21,-16.45,0,*64
1489680039.14,52830,9.75,72878.5,-10.33,-15.01,-15.89,0,*6D
1489680040.37,52831,9.75,72916.5,-10.31,-14.43,-14.65,0,*6A
1489680041.61,52832,9.75,72890.0,-10.31,-13.79,-15.11,0,*65
1489680042.82,52833,9.75,72922.5,-10.31,-15.71,-18.83,0,*6C
1489680044.11,52834,9.75,72916.5,-10.33,-17.21,-19.65,0,*67
1489680045.36,52835,9.75,72920.5,-10.33,-18.41,-20.59,0,*6A
1489680046.63,52836,9.75,72922.3,-10.33,-19.07,-20.53,0,*60
1489680047.87,52837,9.75,72928.8,-10.31,-17.49,-17.45,0,*64
1489680049.14,52838,9.75,72918.3,-10.33,-15.75,-15.43,0,*60
1489680050.36,52839,9.75,72928.3,-10.31,-14.15,-14.19,0,*6A
1489680051.57,52840,9.75,72926.8,-10.31,-13.15,-14.19,0,*63
1489680052.84,52841,9.75,72936.8,-10.33,-13.61,-14.89,0,*6A
1489680054.08,52842,9.75,72928.0,-10.31,-14.29,-15.89,0,*61
1489680055.35,52843,9.75,72960.3,-10.33,-14.33,-14.47,0,*6A
1489680056.59,52844,9.75,72978.3,-10.31,-13.61,-12.97,0,*64
1489680057.8,52845,9.75,72964.5,-10.31,-12.39,-12.03,0,*64
1489680059.06,52846,9.75,72934.5,-10.31,-11.81,-11.81,0,*6E
1489680060.32,52847,9.75,72892.0,-10.31,-11.59,-11.81,0,*6A
1489680061.58,52848,9.75,72908.5,-10.31,-11.67,-12.15,0,*66
1489680062.85,52849,9.75,72932.8,-10.31,-11.93,-12.83,0,*63
1489680064.1,52850,9.75,72946.0,-10.29,-12.29,-13.23,0,*6B
1489680065.36,52851,9.75,72968.5,-10.29,-12.83,-13.65,0,*68
1489680066.6,52852,9.75,72976.8,-10.29,-13.11,-13.55,0,*62
1489680067.8,52853,9.75,72960.8,-10.27,-12.97,-13.69,0,*6D
1489680069.07,52854,9.75,72972.0,-10.29,-13.15,-15.01,0,*67
1489680070.27,52855,9.75,72962.8,-10.31,-14.29,-16.45,0,*64
1489680071.54,52856,9.75,72958.8,-10.29,-16.17,-18.49,0,*63
1489680072.81,52857,9.75,72970.0,-10.27,-16.27,-16.13,0,*6E
1489680074.05,52858,9.75,72958.5,-10.31,-15.85,-15.15,0,*68
1489680075.31,52859,9.75,72964.0,-10.31,-14.43,-13.83,0,*6B
1489680076.54,52860,9.75,72962.5,-10.31,-13.37,-13.43,0,*69
1489680077.78,52861,9.75,73004.5,-10.31,-13.01,-13.15,0,*6E
1489680079.02,52862,9.75,72944.5,-10.33,-12.97,-12.97,0,*6A
1489680080.28,52863,9.75,72926.3,-10.31,-12.61,-12.57,0,*6C
1489680081.54,52864,9.75,72924.0,-10.31,-12.11,-12.15,0,*6A
1489680082.8,52865,9.75,72890.0,-10.31,-12.07,-12.15,0,*6C
1489680084.04,52866,9.75,72884.3,-10.31,-11.97,-12.25,0,*66
1489680085.3,52867,9.75,72918.8,-10.31,-11.85,-12.11,0,*63
1489680086.59,52868,9.75,72930.3,-10.33,-11.85,-12.11,0,*6E
1489680087.88,52869,9.75,72942.0,-10.33,-11.97,-12.15,0,*68
1489680089.13,52870,9.75,72928.3,-10.31,-11.93,-12.29,0,*69
1489680090.42,52871,9.75,72904.5,-10.33,-12.15,-12.75,0,*6E
1489680091.66,52872,9.75,72870.8,-10.33,-12.43,-12.89,0,*6D
1489680092.9,52873,9.75,72872.8,-10.31,-12.29,-12.83,0,*68
1489680094.11,52874,9.75,72930.5,-10.31,-12.29,-13.43,0,*62
1489680095.33,52875,9.75,72916.5,-10.31,-12.97,-14.15,0,*62
1489680096.56,52876,9.75,72934.0,-10.31,-13.11,-13.83,0,*66
1489680097.83,52877,9.75,72900.0,-10.31,-13.29,-13.97,0,*69
1489680099.12,52878,9.75,72934.0,-10.33,-13.83,-14.43,0,*6A
1489680100.37,52879,9.75,72938.8,-10.31,-14.01,-14.29,0,*68
1489680101.63,52880,9.75,72928.3,-10.31,-14.01,-13.79,0,*6C
1489680102.89,52881,9.75,72920.3,-10.31,-13.01,-12.83,0,*6E
1489680104.11,52882,9.75,72960.0,-10.31,-12.25,-12.25,0,*66
1489680105.38,52883,9.75,72938.3,-10.31,-11.93,-11.85,0,*60
1489680106.64,52884,9.75,72948.8,-10.31,-11.55,-11.59,0,*6C
1489680107.86,52885,9.75,72958.3,-10.31,-11.41,-11.45,0,*65
1489680109.1,52886,9.75,72970.5,-10.31,-11.41,-11.59,0,*6B
1489680110.38,52887,9.75,72934.5,-10.29,-11.81,-11.97,0,*6D
1489680111.65,52888,9.75,72908.5,-10.29,-12.07,-12.25,0,*65
1489680112.89,52889,9.75,72910.0,-10.29,-12.43,-12.43,0,*64
1489680114.13,52890,9.75,72896.0,-10.29,-12.39,-12.25,0,*61
1489680115.37,52891,9.75,72902.0,-10.29,-12.43,-12.39,0,*60
1489680116.64,52892,9.75,72900.5,-10.27,-12.07,-12.07,0,*60
1489680117.91,52893,9.75,72880.5,-10.27,-11.93,-11.93,0,*61
1489680119.17,52894,9.75,72918.5,-10.27,-11.77,-11.81,0,*6F
1489680120.46,52895,9.75,72934.5,-10.29,-11.59,-11.73,0,*61
1489680121.76,52896,9.75,72920.3,-10.29,-11.67,-11.85,0,*66
1489680123.03,52897,9.75,72952.3,-10.27,-11.67,-11.93,0,*6E
1489680124.29,52898,9.75,72962.0,-10.27,-11.77,-12.07,0,*6E
1489680125.53,52899,9.75,72962.8,-10.27,-12.03,-12.35,0,*6E
1489680126.78,52900,9.75,72964.3,-10.27,-11.93,-12.21,0,*60
1489680128.07,52901,9.75,72950.3,-10.29,-11.85,-11.97,0,*66
1489680129.33,52902,9.75,72938.8,-10.27,-11.51,-11.67,0,*6D
1489680130.59,52903,9.75,72936.3,-10.27,-11.51,-11.89,0,*6C
1489680131.87,52904,9.75,72932.5,-10.27,-11.93,-12.53,0,*61
1489680133.1,52905,9.75,72906.8,-10.27,-12.39,-13.37,0,*60
1489680134.34,52906,9.75,72898.3,-10.27,-13.07,-14.51,0,*68
1489680135.55,52907,9.75,72898.0,-10.27,-13.65,-14.23,0,*68
1489680136.79,52908,9.75,72878.3,-10.27,-14.65,-14.51,0,*65
1489680138.02,52909,9.75,72858.8,-10.27,-13.61,-13.11,0,*64
1489680139.26,52910,9.75,72898.3,-10.27,-12.47,-12.53,0,*6E
1489680140.55,52911,9.75,72894.5,-10.25,-12.35,-12.61,0,*69
1489680141.79,52912,9.75,72892.0,-10.25,-12.47,-13.11,0,*69
1489680143.06,52913,9.75,72904.8,-10.25,-12.79,-13.51,0,*61
1489680144.33,52914,9.75,72898.3,-10.25,-14.11,-15.21,0,*6F
1489680145.62,52915,9.75,72900.0,-10.25,-14.79,-14.97,0,*6C
1489680146.9,52916,9.75,72902.0,-10.25,-15.21,-14.05,0,*68
1489680148.16,52917,9.75,72890.8,-10.25,-13.73,-12.65,0,*68
1489680149.46,52918,9.75,72902.8,-10.25,-12.11,-11.89,0,*63
1489680150.75,52919,9.75,72934.8,-10.25,-11.67,-11.63,0,*64
1489680152.04,52920,9.75,72930.3,-10.25,-11.37,-11.29,0,*65
1489680153.34,52921,9.75,72928.3,-10.25,-11.29,-11.29,0,*6B
1489680154.55,52922,9.75,72928.5,-10.23,-11.11,-11.19,0,*66
1489680155.81,52923,9.75,72900.8,-10.23,-11.37,-11.37,0,*6F
1489680157.1,52924,9.75,72898.3,-10.25,-11.55,-11.55,0,*6E
1489680158.37,52925,9.75,72888.3,-10.25,-11.41,-11.55,0,*6A
1489680159.6,52926,9.75,72912.0,-10.23,-11.19,-11.37,0,*66
1489680160.9,52927,9.75,72894.5,-10.25,-11.29,-11.55,0,*66
1489680162.19,52928,9.75,72918.0,-10.25,-11.63,-11.89,0,*66
1489680163.46,52929,9.75,72944.3,-10.25,-11.77,-12.21,0,*63
1489680164.73,52930,9.75,72914.0,-10.25,-11.89,-12.47,0,*6A
1489680165.96,52931,9.75,72886.5,-10.23,-12.35,-13.07,0,*6C
1489680167.22,52932,9.75,72848.0,-10.25,-12.65,-13.51,0,*6F
1489680168.46,52933,9.75,72862.0,-10.25,-13.11,-14.23,0,*6E
1489680169.76,52934,9.75,72852.8,-10.25,-13.61,-13.61,0,*6F
1489680171.0,52935,9.75,72874.0,-10.25,-12.93,-12.97,0,*6A
1489680172.29,52936,9.75,72854.3,-10.25,-12.35,-12.75,0,*69
1489680173.56,52937,9.75,72886.8,-10.25,-12.65,-12.89,0,*6E
1489680174.85,52938,9.75,72906.8,-10.25,-12.35,-12.79,0,*6B
1489680176.12,52939,9.75,72984.0,-10.25,-12.65,-12.93,0,*6B
1489680177.41,52940,9.75,72940.8,-10.25,-12.61,-12.35,0,*6D
1489680178.68,52941,9.75,72884.5,-10.25,-12.03,-11.93,0,*67
1489680179.96,52942,9.75,72900.8,-10.25,-11.81,-11.67,0,*66
1489680181.26,52943,9.75,72928.3,-10.25,-11.55,-11.55,0,*6F
1489680182.5,52944,9.75,72966.0,-10.25,-11.41,-11.41,0,*68
1489680183.76,52945,9.75,72912.0,-10.23,-11.37,-11.59,0,*67
1489680185.02,52946,9.75,72920.8,-10.23,-11.37,-11.77,0,*68
1489680186.31,52947,9.75,72982.5,-10.25,-11.81,-12.11,0,*61
1489680187.58,52948,9.75,72972.8,-10.25,-12.25,-12.35,0,*65
1489680188.84,52949,9.75,72960.0,-10.25,-12.03,-12.11,0,*66
1489680190.08,52950,9.75,72940.3,-10.23,-11.85,-12.47,0,*66
1489680191.32,52951,9.75,72940.3,-10.25,-12.39,-13.65,0,*64
1489680192.56,52952,9.75,72934.0,-10.25,-12.93,-14.33,0,*63
1489680193.77,52953,9.75,72938.0,-10.23,-13.07,-14.19,0,*60
1489680195.03,52954,9.75,72908.0,-10.25,-13.07,-12.75,0,*6D
1489680196.3,52955,9.75,72898.5,-10.25,-12.07,-12.47,0,*6C
1489680197.57,52956,9.75,72876.8,-10.25,-12.07,-12.97,0,*62
1489680198.8,52957,9.75,72864.3,-10.25,-13.11,-13.73,0,*6E
1489680200.07,52958,9.75,72882.5,-10.25,-12.61,-12.97,0,*6C
1489680201.31,52959,9.75,72888.3,-10.25,-12.47,-13.11,0,*66
1489680202.57,52960,9.75,72902.0,-10.25,-12.47,-12.75,0,*6F
1489680203.84,52961,9.75,72904.5,-10.25,-12.21,-12.65,0,*6F
1489680205.11,52962,9.75,72904.0,-10.25,-12.25,-12.75,0,*69
1489680206.39,52963,9.75,72926.0,-10.25,-12.53,-13.19,0,*62
1489680207.65,52964,9.75,72898.0,-10.25,-12.97,-13.33,0,*65
1489680208.92,52965,9.75,72926.5,-10.25,-12.53,-12.47,0,*6E
1489680210.19,52966,9.75,72924.3,-10.25,-12.11,-12.21,0,*6B
1489680211.47,52967,9.75,72938.5,-10.25,-11.93,-12.21,0,*63
1489680212.76,52968,9.75,72934.8,-10.25,-12.11,-12.53,0,*60
1489680214.02,52969,9.75,72932.0,-10.25,-12.25,-12.65,0,*63
1489680215.29,52970,9.75,72948.3,-10.23,-12.15,-12.57,0,*6F
1489680216.49,52971,9.75,72964.3,-10.23,-12.43,-13.15,0,*6A
1489680217.72,52972,9.75,72968.5,-10.23,-13.07,-14.43,0,*6C
1489680218.93,52973,9.75,72958.3,-10.23,-14.89,-16.45,0,*68
1489680220.17,52974,9.75,72916.5,-10.23,-14.93,-15.75,0,*64
1489680221.41,52975,9.75,72922.8,-10.23,-14.15,-15.01,0,*68
1489680222.67,52976,9.75,72926.3,-10.25,-13.79,-14.33,0,*60
1489680223.91,52977,9.75,72912.3,-10.23,-13.43,-13.61,0,*6E
1489680225.18,52978,9.75,72918.8,-10.25,-12.25,-12.11,0,*60
1489680226.45,52979,9.75,72934.3,-10.23,-11.77,-11.89,0,*61
1489680227.69,52980,9.75,72932.3,-10.23,-11.85,-12.03,0,*6B
1489680228.97,52981,9.75,72952.3,-10.25,-11.77,-11.77,0,*61
1489680230.27,52982,9.75,72942.8,-10.25,-11.51,-11.63,0,*63
1489680231.53,52983,9.75,72942.0,-10.23,-11.37,-11.63,0,*64
1489680232.8,52984,9.75,72926.0,-10.23,-11.59,-11.85,0,*63
1489680234.06,52985,9.75,72954.0,-10.25,-11.63,-12.03,0,*60
1489680235.3,52986,9.75,72930.8,-10.23,-11.77,-12.21,0,*60
1489680236.54,52987,9.75,72916.3,-10.23,-11.97,-12.93,0,*66
1489680237.76,52988,9.75,72918.3,-10.23,-12.21,-13.15,0,*68
1489680239.05,52989,9.75,72912.0,-10.25,-12.35,-13.33,0,*6E
1489680240.31,52990,9.75,72912.3,-10.23,-12.35,-13.33,0,*60
1489680241.55,52991,9.75,72920.3,-10.23,-12.47,-13.33,0,*64
1489680242.81,52992,9.75,72930.0,-10.23,-13.01,-14.43,0,*64
1489680244.05,52993,9.75,72952.3,-10.23,-13.69,-15.21,0,*6E
1489680245.26,52994,9.75,72912.5,-10.23,-13.73,-15.15,0,*65
1489680246.5,52995,9.75,72904.8,-10.23,-13.55,-14.43,0,*62
1489680247.76,52996,9.75,72950.3,-10.25,-13.11,-13.97,0,*69
1489680248.98,52997,9.75,72942.0,-10.23,-14.15,-16.45,0,*67
1489680250.25,52998,9.75,72934.3,-10.25,-15.53,-18.01,0,*63
1489680251.54,52999,9.75,72934.5,-10.25,-18.31,-21.53,0,*66
1489680252.78,53000,9.75,72924.3,-10.25,-18.99,-21.93,0,*60
1489680254.03,53001,9.75,72924.5,-10.25,-19.13,-21.93,0,*62
1489680255.28,53002,9.75,72936.3,-10.25,-18.45,-20.93,0,*62
1489680256.52,53003,9.75,72928.0,-10.27,-17.87,-20.19,0,*62
1489680257.75,53004,9.75,72936.8,-10.27,-18.59,-21.43,0,*67
1489680258.99,53005,9.75,72944.5,-10.25,-18.69,-21.43,0,*67
1489680260.23,53006,9.75,72940.3,-10.25,-18.79,-21.63,0,*67
1489680261.47,53007,9.75,72938.0,-10.27,-18.79,-20.79,0,*6E
1489680262.73,53008,9.75,72940.8,-10.27,-16.51,-17.45,0,*6E
1489680263.97,53009,9.75,72934.8,-10.29,-15.29,-17.49,0,*61
1489680265.24,53010,9.75,72944.5,-10.29,-16.17,-18.41,0,*60
1489680266.51,53011,9.75,72954.8,-10.29,-16.13,-17.49,0,*62
1489680267.74,53012,9.75,72948.5,-10.27,-15.71,-17.93,0,*6F
1489680268.95,53013,9.75,72948.0,-10.27,-15.99,-17.35,0,*64
1489680270.19,53014,9.75,72952.5,-10.29,-14.89,-16.45,0,*6B
1489680271.49,53015,9.75,72952.8,-10.29,-15.43,-17.59,0,*61
1489680272.72,53016,9.75,72948.0,-10.27,-15.63,-17.41,0,*67
1489680273.98,53017,9.75,72942.8,-10.27,-16.27,-18.59,0,*63
1489680275.22,53018,9.75,72950.0,-10.27,-16.89,-19.41,0,*60
1489680276.48,53019,9.75,72934.0,-10.27,-18.59,-21.27,0,*69
1489680277.73,53020,9.75,72908.5,-10.25,-19.13,-21.77,0,*6B
1489680278.98,53021,9.75,72918.0,-10.29,-19.17,-21.47,0,*61
1489680280.22,53022,9.75,72912.8,-10.29,-18.73,-20.69,0,*6C
1489680281.49,53023,9.75,72922.8,-10.29,-18.21,-20.19,0,*6D
1489680282.7,53024,9.75,72904.3,-10.27,-17.73,-19.71,0,*68
1489680283.97,53025,9.75,72914.8,-10.29,-17.79,-18.73,0,*6E
1489680285.23,53026,9.75,72916.3,-10.29,-17.45,-16.93,0,*62
1489680286.53,53027,9.75,72930.0,-10.29,-16.31,-15.39,0,*62
1489680287.81,53028,9.75,72926.3,-10.29,-14.79,-13.83,0,*64
1489680289.03,53029,9.75,72922.0,-10.27,-13.19,-12.97,0,*6E
1489680290.24,53030,9.69,72924.8,-10.27,-12.39,-12.39,0,*61
1489680291.54,53031,9.75,72930.5,-10.29,-12.11,-12.07,0,*69
1489680292.8,53032,9.75,72918.3,-10.27,-11.89,-11.81,0,*6B
1489680294.02,53033,9.75,72934.8,-10.27,-11.41,-11.41,0,*62
1489680295.28,53034,9.75,72944.8,-10.27,-11.29,-11.37,0,*6A
1489680296.52,53035,9.75,72942.5,-10.27,-11.15,-11.29,0,*6B
1489680297.78,53036,9.75,72938.3,-10.25,-11.15,-11.37,0,*65
1489680299.05,53037,9.75,72946.5,-10.25,-11.23,-11.29,0,*6E
1489680300.29,53038,9.75,72914.8,-10.25,-11.15,-11.15,0,*6B
1489680301.53,53039,9.75,72916.0,-10.23,-11.07,-11.19,0,*63
1489680302.79,53040,9.75,72884.8,-10.23,-11.07,-11.33,0,*65
1489680304.05,53041,9.75,72938.8,-10.23,-11.37,-11.73,0,*63
1489680305.31,53042,9.75,72948.3,-10.23,-11.59,-11.97,0,*62
1489680306.55,53043,9.75,72966.3,-10.23,-11.77,-12.03,0,*61
1489680307.79,53044,9.75,72946.8,-10.23,-11.77,-12.43,0,*62
1489680309.08,53045,9.75,72966.3,-10.21,-12.07,-12.83,0,*69
1489680310.31,53046,9.75,72960.0,-10.23,-12.15,-13.43,0,*66
1489680311.57,53047,9.75,72992.5,-10.23,-12.71,-13.61,0,*65
1489680312.85,53048,9.75,72934.3,-10.21,-12.29,-12.71,0,*65
1489680314.12,53049,9.75,72930.8,-10.21,-12.29,-12.83,0,*69
1489680315.39,53050,9.75,72952.5,-10.21,-12.29,-12.75,0,*68
1489680316.68,53051,9.75,72912.0,-10.21,-12.35,-12.61,0,*61
1489680317.97,53052,9.75,72936.3,-10.21,-12.35,-12.75,0,*67
1489680319.21,53053,9.69,72948.0,-10.21,-13.47,-13.55,0,*61
1489680320.44,53054,9.75,72942.3,-10.23,-13.93,-13.33,0,*6D
1489680321.71,53055,9.75,72944.5,-10.21,-12.89,-12.75,0,*67
1489680322.95,53056,9.75,72930.3,-10.21,-12.29,-12.29,0,*67
1489680324.22,53057,9.75,72956.5,-10.21,-11.89,-12.03,0,*67
1489680325.51,53058,9.75,72972.3,-10.21,-11.85,-12.15,0,*63
1489680326.77,53059,9.75,72982.0,-10.21,-11.85,-12.43,0,*61
1489680328.01,53060,9.75,72992.8,-10.21,-12.21,-13.15,0,*64
1489680329.31,53061,9.75,72994.8,-10.21,-13.01,-14.79,0,*6B
1489680330.61,53062,9.75,73004.3,-10.21,-14.05,-16.17,0,*61
1489680331.87,53063,9.75,73016.5,-10.21,-15.29,-16.31,0,*6B
1489680333.12,53064,9.75,73024.5,-10.23,-15.63,-17.07,0,*64
1489680334.33,53065,9.75,73016.3,-10.23,-15.07,-15.07,0,*65
1489680335.61,53066,9.75,73020.3,-10.21,-13.33,-13.61,0,*63
1489680336.82,53067,9.75,73004.0,-10.23,-13.15,-13.15,0,*67
1489680338.09,53068,9.75,72988.8,-10.23,-12.75,-12.71,0,*6C
1489680339.32,53069,9.75,72986.0,-10.23,-12.03,-12.15,0,*6E
1489680340.59,53070,9.75,72978.5,-10.23,-12.07,-12.07,0,*61
1489680341.85,53071,9.75,72976.8,-10.23,-11.73,-11.89,0,*65
1489680343.12,53072,9.75,72980.5,-10.23,-11.63,-11.97,0,*68
1489680344.36,53073,9.75,72966.3,-10.23,-12.35,-13.19,0,*6D
1489680345.57,53074,9.75,72960.3,-10.23,-13.43,-14.19,0,*6D
1489680346.87,53075,9.75,72952.8,-10.21,-14.05,-14.93,0,*69
1489680348.11,53076,9.75,72960.0,-10.25,-14.23,-13.93,0,*6D
1489680349.37,53077,9.75,72972.0,-10.23,-12.83,-12.71,0,*6B
1489680350.64,53078,9.75,72972.0,-10.25,-12.61,-12.89,0,*69
1489680351.88,53079,9.75,72944.5,-10.25,-12.93,-12.97,0,*6A
1489680353.13,53080,9.75,72948.0,-10.25,-12.21,-12.21,0,*68
1489680354.4,53081,9.75,72966.3,-10.25,-11.93,-12.03,0,*63
1489680355.7,53082,9.75,72986.3,-10.25,-11.93,-11.93,0,*6A
1489680356.99,53083,9.75,72980.8,-10.25,-12.11,-12.11,0,*6B
1489680358.26,53084,9.75,72976.0,-10.23,-12.15,-11.89,0,*6C
1489680359.55,53085,9.75,72968.3,-10.25,-11.93,-11.77,0,*67
1489680360.85,53086,9.75,72924.5,-10.25,-11.55,-11.55,0,*6E
1489680362.13,53087,9.75,72946.0,-10.25,-11.37,-11.51,0,*6F
1489680363.38,53088,9.75,72966.0,-10.23,-11.45,-11.63,0,*62
1489680364.67,53089,9.75,72970.0,-10.25,-11.77,-11.93,0,*6B
1489680365.94,53090,9.75,72932.0,-10.25,-11.89,-12.03,0,*68
1489680367.24,53091,9.75,72926.5,-10.25,-11.93,-12.11,0,*61
1489680368.53,53092,9.75,72948.0,-10.25,-11.77,-12.07,0,*6F
1489680369.78,53093,9.75,72936.5,-10.25,-12.21,-12.97,0,*67
1489680371.04,53094,9.75,72952.5,-10.25,-12.79,-13.65,0,*61
1489680372.25,53095,9.75,72946.5,-10.23,-13.65,-14.65,0,*6D
1489680373.52,53096,9.75,72956.0,-10.25,-13.79,-14.37,0,*62
1489680374.81,53097,9.75,72978.0,-10.25,-13.37,-14.51,0,*69
1489680376.04,53098,9.75,72988.8,-10.25,-13.47,-14.69,0,*6A
1489680377.25,53099,9.75,72982.8,-10.23,-13.93,-15.11,0,*6A
1489680378.5,53100,9.75,73002.0,-10.25,-14.11,-15.11,0,*60
1489680379.76,53101,9.75,73020.3,-10.25,-13.65,-14.93,0,*6E
1489680381.05,53102,9.75,73006.8,-10.25,-13.79,-14.83,0,*61
1489680382.33,53103,9.75,72946.5,-10.25,-14.19,-15.21,0,*68
1489680383.63,53104,9.75,72948.8,-10.25,-14.05,-14.97,0,*6E
1489680384.87,53105,9.75,72936.5,-10.25,-13.51,-14.37,0,*63
1489680386.15,53106,9.75,72940.8,-10.25,-13.33,-13.79,0,*69
1489680387.39,53107,9.75,72956.8,-10.23,-13.43,-14.01,0,*61
1489680388.63,53108,9.75,72946.8,-10.23,-13.61,-14.29,0,*64
1489680389.87,53109,9.75,72946.0,-10.25,-13.19,-13.51,0,*64
1489680391.14,53110,9.75,72938.3,-10.25,-12.79,-13.11,0,*6F
1489680392.37,53111,9.75,72934.5,-10.23,-12.57,-12.43,0,*62
1489680393.67,53112,9.75,72946.5,-10.25,-11.89,-11.67,0,*62
1489680394.9,53113,9.75,72966.5,-10.23,-11.37,-11.45,0,*60
1489680396.16,53114,9.75,72960.0,-10.23,-11.37,-11.51,0,*62
1489680397.45,53115,9.75,72956.0,-10.25,-11.67,-11.77,0,*64
1489680398.74,53116,9.75,72882.3,-10.25,-11.55,-11.67,0,*67
1489680400.01,53117,9.75,72816.3,-10.25,-11.41,-11.55,0,*62
1489680401.27,53118,9.75,72884.8,-10.23,-11.33,-11.37,0,*6A
1489680402.48,53119,9.75,72904.3,-10.23,-11.19,-11.23,0,*66
1489680403.69,53120,9.75,72912.3,-10.23,-11.19,-11.19,0,*65
1489680404.91,53121,9.75,72918.5,-10.23,-11.19,-11.33,0,*6C
1489680406.13,53122,9.75,72926.8,-10.23,-11.11,-11.23,0,*66
1489680407.36,53123,9.75,72940.3,-10.23,-11.23,-11.37,0,*63
1489680408.6,53124,9.75,72936.0,-10.23,-11.33,-11.45,0,*60
1489680409.89,53125,9.75,72888.5,-10.25,-11.37,-11.67,0,*63
1489680411.15,53126,9.75,72906.5,-10.23,-11.63,-11.85,0,*6B
1489680412.41,53127,9.75,72932.0,-10.23,-11.77,-12.15,0,*65
1489680413.65,53128,9.75,72894.5,-10.23,-11.85,-12.43,0,*64
1489680414.89,53129,9.75,72904.5,-10.23,-12.15,-12.89,0,*69
1489680416.14,53130,9.75,72926.3,-10.23,-12.47,-12.71,0,*61
1489680417.4,53131,9.75,72924.8,-10.23,-11.97,-12.15,0,*6C
1489680418.66,53132,9.75,72928.5,-10.23,-11.89,-11.97,0,*69
1489680419.9,53133,9.75,72920.3,-10.23,-11.85,-12.29,0,*62
1489680421.14,53134,9.75,72926.8,-10.23,-11.97,-12.03,0,*6E
1489680422.43,53135,9.75,72924.8,-10.21,-11.85,-11.89,0,*6F
1489680423.72,53136,9.75,72914.8,-10.21,-11.73,-11.89,0,*65
1489680424.98,53137,9.75,72932.3,-10.21,-11.85,-12.21,0,*6C
1489680426.27,53138,9.75,72930.0,-10.21,-11.89,-12.57,0,*6E
1489680427.49,53139,9.75,72926.5,-10.19,-13.11,-14.37,0,*67
1489680428.75,53140,9.75,72892.8,-10.21,-13.07,-13.01,0,*67
1489680430.01,53141,9.75,72912.0,-10.23,-11.97,-11.85,0,*61
1489680431.27,53142,9.75,72934.0,-10.23,-11.59,-11.59,0,*61
1489680432.53,53143,9.75,72926.3,-10.21,-11.37,-11.45,0,*67
1489680433.8,53144,9.75,72900.0,-10.19,-11.33,-11.85,0,*63
1489680435.06,53145,9.75,72932.3,-10.21,-11.85,-12.47,0,*69
1489680436.31,53146,9.75,72920.8,-10.19,-12.29,-12.83,0,*6C
1489680437.57,53147,9.75,72926.3,-10.21,-12.43,-13.33,0,*60
1489680438.83,53148,9.75,72888.3,-10.21,-12.89,-14.05,0,*6B
1489680440.05,53149,9.75,72872.3,-10.23,-13.43,-14.15,0,*6E
1489680441.28,53150,9.75,72888.5,-10.23,-13.33,-14.29,0,*6E
1489680442.52,53151,9.75,72898.0,-10.23,-13.73,-14.55,0,*60
1489680443.76,53152,9.75,72884.3,-10.23,-13.33,-15.15,0,*62
1489680445.02,53153,9.75,72882.5,-10.23,-14.43,-16.65,0,*67
1489680446.25,53154,9.75,72888.8,-10.23,-14.15,-15.95,0,*6F
1489680447.51,53155,9.75,72914.5,-10.23,-14.79,-17.21,0,*69
1489680448.74,53156,9.75,72894.8,-10.23,-16.23,-18.79,0,*65
1489680450.03,53157,9.75,72916.8,-10.25,-16.23,-17.63,0,*66
1489680451.29,53158,9.75,72928.3,-10.25,-16.65,-17.73,0,*6A
1489680452.53,53159,9.75,72934.5,-10.23,-14.61,-15.21,0,*6E
1489680453.79,53160,9.75,72936.3,-10.25,-13.93,-14.51,0,*6E
1489680455.03,53161,9.75,72912.0,-10.23,-12.75,-12.89,0,*63
1489680456.31,53162,9.75,72908.5,-10.25,-12.25,-12.75,0,*60
1489680457.57,53163,9.69,72904.8,-10.25,-12.39,-12.79,0,*60
1489680458.81,53164,9.75,72910.3,-10.25,-12.97,-13.11,0,*6C
1489680460.08,53165,9.75,72942.0,-10.25,-12.89,-12.75,0,*61
1489680461.35,53166,9.75,72912.8,-10.25,-12.65,-12.39,0,*68
1489680462.59,53167,9.75,72898.5,-10.25,-12.21,-12.21,0,*60
1489680463.87,53168,9.75,72872.0,-10.25,-12.25,-12.35,0,*6E
1489680465.14,53169,9.75,72912.8,-10.23,-11.93,-11.89,0,*63
1489680466.41,53170,9.75,72908.3,-10.25,-11.93,-12.03,0,*6C
1489680467.68,53171,9.75,72908.8,-10.25,-12.03,-11.89,0,*66
1489680468.94,53172,9.75,72908.3,-10.23,-11.89,-11.97,0,*6D
1489680470.21,53173,9.75,72906.5,-10.27,-11.93,-11.89,0,*6C
1489680471.51,53174,9.75,72924.5,-10.29,-12.07,-11.93,0,*60
1489680472.78,53175,9.75,72830.0,-10.27,-11.93,-11.93,0,*61
1489680474.05,53176,9.75,72784.5,-10.27,-11.93,-11.93,0,*62
1489680475.31,53177,9.75,72798.3,-10.27,-11.77,-11.77,0,*63
1489680476.57,53178,9.75,72888.0,-10.27,-11.51,-11.51,0,*6C
1489680477.81,53179,9.75,72890.0,-10.27,-11.29,-11.23,0,*67
1489680479.08,53180,9.75,72916.3,-10.25,-11.37,-11.23,0,*6C
1489680480.32,53181,9.69,72938.5,-10.25,-11.23,-11.23,0,*68
1489680481.53,53182,9.69,72940.5,-10.23,-11.11,-11.11,0,*6D
1489680482.74,53183,9.69,72966.5,-10.23,-11.11,-11.11,0,*6C
1489680483.98,53184,9.75,72966.8,-10.23,-11.07,-11.11,0,*6C
1489680485.22,53185,9.75,72968.8,-10.23,-11.07,-11.11,0,*6D
1489680486.46,53186,9.75,72964.8,-10.25,-11.15,-11.15,0,*6F
1489680487.67,53187,9.75,72962.5,-10.23,-11.11,-11.11,0,*68
1489680488.93,53188,9.75,72930.8,-10.25,-11.41,-11.33,0,*64
1489680490.19,53189,9.75,72936.0,-10.21,-11.33,-11.23,0,*65
1489680491.4,53190,9.75,72940.0,-10.23,-11.11,-11.19,0,*66
1489680492.66,53191,9.75,72928.5,-10.23,-11.33,-11.33,0,*6F
1489680493.9,53192,9.75,72914.3,-10.21,-11.23,-11.23,0,*6E
1489680495.13,53193,9.75,72900.0,-10.21,-11.19,-11.11,0,*67
1489680496.37,53194,9.75,72912.8,-10.21,-11.11,-11.11,0,*68
1489680497.61,53195,9.75,72924.0,-10.21,-11.11,-11.11,0,*69
1489680498.84,53196,9.75,72942.5,-10.21,-11.19,-11.11,0,*62
1489680500.08,53197,9.75,72934.5,-10.21,-11.11,-11.11,0,*6B
1489680501.33,53198,9.69,72930.0,-10.21,-11.19,-11.33,0,*6C